Regional Weather Roundup
Issued by NWS Jackson, KY

Home | Current Version | Previous Version | Graphics & Text | Print | Product List | Glossary On
Versions: 1 2 3 4 5 6 7 8 9 10 11 12 13 14 15 16 17 18 19 20 21 22 23 24 25 26 27 28 29 30 31 32 33 34 35 36 37 38 39 40 41 42 43 44 45 46 47 48 49 50
443
ASUS43 KJKL 050310
RWRJKL

EAST KENTUCKY HOURLY WEATHER ROUNDUP
NATIONAL WEATHER SERVICE JACKSON KY
1100 PM EDT WED MAY 04 2016

NOTE: "FAIR" INDICATES FEW OR NO CLOUDS BELOW 12,000 FEET WITH
NO SIGNIFICANT WEATHER AND/OR OBSTRUCTIONS TO VISIBILITY.

* THESE REPORTS ARE NOT UNDER NWS QUALITY CONTROL AND MAY NOT
  REPORT WEATHER SUCH AS PRECIPITATION AND FOG.

KYZ079-080-083-085-087-088-110-112-115-119-120-050400
...EASTERN KENTUCKY...

CITY           SKY/WX    TMP DP  RH WIND       PRES   REMARKS
JACKSON        LGT RAIN  47  42  83 NW5       29.76R
LONDON         CLOUDY    48  41  76 N5        29.76R
SOMERSET*      CLOUDY    46  46 100 CALM      29.80R
MONTICELLO*    RAIN      48  45  89 N17G31    29.83R
WILLIAMSBURG*  CLOUDY    45  45 100 CALM      29.79R VSB 1
MIDDLESBORO*   CLOUDY    46  46 100 CALM      29.77S
HARLAN APT*    MOCLDY    46  45  93 W3        29.76R
HAZARD APT*    LGT RAIN  48  48 100 N6        29.76
BLACK MTN*       N/A     39  39 100 N7          N/A  WCI  34
PIKE CO APT*   CLOUDY    48  48 100 CALM      29.73S
BIG SANDY APT* CLOUDY    49  48  99 NW3       29.74R
MOREHEAD APT*  CLEAR     46  41  81 NW5       29.78R
$$

KYZ035-036-041-042-044-050-067-078-099-050400
...CENTRAL KENTUCKY...

CITY           SKY/WX    TMP DP  RH WIND       PRES   REMARKS
MT STERLING*   CLEAR     46  41  81 N5        29.79R
FLEMING/MASON* CLEAR     45  38  76 NW9       29.77S
DANVILLE*      CLOUDY    48  43  81 N7        29.79R
RICHMOND*      MOCLDY    50  39  66 N6        29.77R
LEXINGTON      PTCLDY    48  38  68 NW10      29.79R
FRANKFORT      MOCLDY    50  37  61 NW9       29.79R
LOUISVILLE     PTCLDY    52  38  58 NW10      29.81R
LEBANON*         N/A     50  41  71 NW8       29.80R
BOWLING GREEN  PTCLDY    55  41  59 NW5       29.84R
$$

KYZ091>093-OHZ055-061-077-WVZ005-015-034-035-042-050400
...SOUTHERN OHIO/WEST VIRGINIA...

CITY           SKY/WX    TMP DP  RH WIND       PRES   REMARKS
COVINGTON      PTCLDY    45  34  65 NW10      29.77R
COLUMBUS       CLOUDY    46  39  76 NW13      29.72R
DAYTON         MOCLDY    43  34  70 NW15      29.75R
WILMINGTON     CLOUDY    47  37  68 NW9       29.73S
HUNTINGTON     LGT RAIN  49  44  83 NW12      29.73R
CHARLESTON     RAIN      51  50  96 CALM      29.70S FOG
PINEVILLE*     CLOUDY    48  45  90 MISG      29.76S
BECKLEY        CLOUDY    47  44  90 CALM      29.71S
$$

VAZ002-007-008-TNZ017-027-036-066-071-050400
...SOUTHWEST VIRGINIA/EAST TENNESSEE...

CITY           SKY/WX    TMP DP  RH WIND       PRES   REMARKS
WISE*          LGT RAIN  43  43 100 W5        29.74S
BRISTOL        LGT RAIN  50  42  74 W12       29.73R
MORRISTOWN*    CLOUDY    48  46  93 SW3       29.76R
SEVIERVILLE*   MOCLDY    48  46  93 CALM      29.77S
KNOXVILLE      MOCLDY    52  48  86 SW7       29.78R
OAK RIDGE      PTCLDY    50  47  89 SW3       29.79R
CROSSVILLE     PTCLDY    47  44  90 W5        29.80R
NASHVILLE      MOCLDY    56  40  55 NW9       29.84R
$$

...KEY TO REMARKS...
VSB - VISIBILITY IN MILES
WCI - WIND CHILL INDEX
HX  - HEAT INDEX

$$




USA.gov is the U.S. government's official web portal to all federal, state and local government web resources and services.